TimeEST,TemperatureF,Dew PointF,Humidity,Sea Level PressureIn,VisibilityMPH,Wind Direction,Wind SpeedMPH,Gust SpeedMPH,PrecipitationIn,Events,Conditions,WindDirDegrees,DateUTC
12:15 AM,27.9,21.2,76,30.17,10.0,WNW,16.1,25.3,N/A,Snow,Light Snow,290,2012-12-30 05:15:00
12:35 AM,27.1,20.8,77,30.18,10.0,WNW,10.4,18.4,N/A,,Overcast,290,2012-12-30 05:35:00
12:55 AM,26.6,20.3,77,30.19,10.0,West,9.2,18.4,N/A,,Overcast,280,2012-12-30 05:55:00
1:15 AM,26.6,19.8,75,30.19,10.0,West,12.7,20.7,N/A,Snow,Light Snow,280,2012-12-30 06:15:00
1:35 AM,26.6,19.4,74,30.20,10.0,WNW,12.7,19.6,N/A,,Overcast,290,2012-12-30 06:35:00
1:55 AM,26.6,19.2,74,30.21,10.0,WNW,11.5,16.1,N/A,,Overcast,290,2012-12-30 06:55:00
2:15 AM,26.4,19.4,75,30.22,10.0,WNW,12.7,23.0,N/A,,Overcast,290,2012-12-30 07:15:00
2:35 AM,26.4,19.8,76,30.23,10.0,West,12.7,19.6,N/A,,Overcast,270,2012-12-30 07:35:00
2:55 AM,26.2,19.9,77,30.24,10.0,West,6.9,20.7,N/A,,Overcast,280,2012-12-30 07:55:00
3:15 AM,26.2,20.3,78,30.25,10.0,West,16.1,20.7,N/A,,Overcast,270,2012-12-30 08:15:00
3:35 AM,26.2,20.3,78,30.27,10.0,West,11.5,20.7,N/A,,Overcast,280,2012-12-30 08:35:00
3:55 AM,25.7,19.8,78,30.28,10.0,West,10.4,-,N/A,,Overcast,280,2012-12-30 08:55:00
4:15 AM,25.7,19.2,76,30.28,10.0,West,10.4,18.4,N/A,,Overcast,280,2012-12-30 09:15:00
4:35 AM,25.5,19.4,78,30.30,10.0,West,10.4,-,N/A,,Overcast,280,2012-12-30 09:35:00
4:55 AM,25.5,19.9,79,30.31,10.0,West,5.8,-,N/A,,Overcast,280,2012-12-30 09:55:00
5:15 AM,25.5,19.6,78,30.32,10.0,WNW,10.4,18.4,N/A,,Overcast,290,2012-12-30 10:15:00
5:35 AM,25.5,20.1,80,30.33,10.0,WNW,4.6,-,N/A,,Overcast,290,2012-12-30 10:35:00
5:55 AM,25.5,19.9,79,30.33,10.0,WNW,5.8,-,N/A,,Overcast,290,2012-12-30 10:55:00
8:35 AM,25.5,19.4,78,30.40,10.0,West,5.8,-,N/A,,Overcast,280,2012-12-30 13:35:00
8:55 AM,25.7,19.9,79,30.41,10.0,WNW,5.8,-,N/A,,Overcast,290,2012-12-30 13:55:00
9:15 AM,25.7,19.2,76,30.42,10.0,WNW,3.5,-,N/A,,Overcast,300,2012-12-30 14:15:00
9:35 AM,25.7,19.4,77,30.42,10.0,West,6.9,-,N/A,,Overcast,260,2012-12-30 14:35:00
9:55 AM,26.1,19.2,75,30.43,10.0,West,3.5,-,N/A,,Overcast,270,2012-12-30 14:55:00
10:15 AM,26.2,19.2,75,30.43,10.0,West,6.9,-,N/A,,Overcast,260,2012-12-30 15:15:00
10:35 AM,26.4,19.4,75,30.44,10.0,West,8.1,-,N/A,,Overcast,260,2012-12-30 15:35:00
10:55 AM,26.4,19.2,74,30.44,10.0,West,5.8,-,N/A,,Overcast,280,2012-12-30 15:55:00
11:15 AM,27.0,20.1,75,30.44,10.0,WSW,5.8,-,N/A,,Overcast,240,2012-12-30 16:15:00
11:35 AM,27.3,19.6,73,30.43,10.0,West,6.9,-,N/A,,Overcast,260,2012-12-30 16:35:00
11:55 AM,28.2,20.7,73,30.43,10.0,WSW,6.9,-,N/A,,Overcast,250,2012-12-30 16:55:00
12:15 PM,29.1,21.0,72,30.43,10.0,West,5.8,-,N/A,,Overcast,260,2012-12-30 17:15:00
12:35 PM,30.6,22.3,71,30.42,10.0,SW,10.4,-,N/A,,Overcast,230,2012-12-30 17:35:00
12:55 PM,30.0,21.7,71,30.42,10.0,WSW,6.9,-,N/A,,Overcast,240,2012-12-30 17:55:00
1:15 PM,29.1,21.6,73,30.42,10.0,West,4.6,-,N/A,,Mostly Cloudy,260,2012-12-30 18:15:00
1:35 PM,29.7,21.4,71,30.42,10.0,West,4.6,-,N/A,,Mostly Cloudy,260,2012-12-30 18:35:00
1:55 PM,29.8,21.0,70,30.42,10.0,West,5.8,-,N/A,,Mostly Cloudy,260,2012-12-30 18:55:00
2:15 PM,31.8,21.4,65,30.42,10.0,SW,5.8,-,N/A,,Scattered Clouds,230,2012-12-30 19:15:00
2:35 PM,32.4,21.4,64,30.41,10.0,SW,6.9,-,N/A,,Clear,230,2012-12-30 19:35:00
2:55 PM,32.7,21.4,63,30.40,10.0,Calm,Calm,-,N/A,,Clear,0,2012-12-30 19:55:00
3:15 PM,32.7,21.0,62,30.39,10.0,Calm,Calm,-,N/A,,Clear,0,2012-12-30 20:15:00
3:35 PM,33.3,21.6,62,30.38,10.0,South,4.6,-,N/A,,Clear,190,2012-12-30 20:35:00
3:55 PM,32.9,21.6,63,30.37,10.0,Calm,Calm,-,N/A,,Clear,0,2012-12-30 20:55:00
4:15 PM,32.9,21.2,62,30.37,10.0,South,3.5,-,N/A,,Clear,190,2012-12-30 21:15:00
4:35 PM,32.9,21.2,62,30.37,10.0,Calm,Calm,-,N/A,,Clear,0,2012-12-30 21:35:00
4:55 PM,32.2,21.4,64,30.39,10.0,Calm,Calm,-,N/A,,Clear,0,2012-12-30 21:55:00
5:15 PM,31.8,21.4,65,30.39,10.0,Calm,Calm,-,N/A,,Clear,0,2012-12-30 22:15:00
5:35 PM,31.3,21.2,66,30.40,10.0,WSW,3.5,-,N/A,,Clear,240,2012-12-30 22:35:00
5:55 PM,30.9,21.2,67,30.41,10.0,SW,3.5,-,N/A,,Clear,230,2012-12-30 22:55:00
6:15 PM,30.9,21.4,68,30.41,10.0,SW,4.6,-,N/A,,Clear,230,2012-12-30 23:15:00
6:35 PM,30.9,21.4,68,30.41,10.0,SSW,3.5,-,N/A,,Clear,210,2012-12-30 23:35:00
6:55 PM,30.7,21.4,68,30.41,10.0,SSW,4.6,-,N/A,,Clear,210,2012-12-30 23:55:00
7:15 PM,30.6,21.2,68,30.40,10.0,South,4.6,-,N/A,,Clear,190,2012-12-31 00:15:00
7:35 PM,30.7,21.2,68,30.40,10.0,SSW,5.8,-,N/A,,Clear,210,2012-12-31 00:35:00
7:55 PM,30.2,21.7,71,30.39,10.0,South,3.5,-,N/A,,Clear,190,2012-12-31 00:55:00
8:15 PM,30.2,21.7,71,30.39,10.0,South,3.5,-,N/A,,Clear,190,2012-12-31 01:15:00
8:35 PM,30.6,21.2,68,30.39,10.0,SW,3.5,-,N/A,,Clear,220,2012-12-31 01:35:00
8:55 PM,29.7,21.4,71,30.40,10.0,Calm,Calm,-,N/A,,Clear,0,2012-12-31 01:55:00
9:15 PM,29.3,21.4,72,30.39,10.0,Calm,Calm,-,N/A,,Clear,0,2012-12-31 02:15:00
9:35 PM,29.3,21.4,72,30.39,10.0,Calm,Calm,-,N/A,,Clear,0,2012-12-31 02:35:00
9:55 PM,28.4,21.9,77,30.38,10.0,Calm,Calm,-,N/A,,Clear,0,2012-12-31 02:55:00
10:15 PM,28.2,21.9,77,30.37,10.0,SSE,3.5,-,N/A,,Clear,160,2012-12-31 03:15:00
10:35 PM,27.5,21.9,80,30.35,10.0,South,3.5,-,N/A,,Clear,170,2012-12-31 03:35:00
10:55 PM,28.8,21.6,74,30.36,10.0,Calm,Calm,-,N/A,,Clear,0,2012-12-31 03:55:00
11:15 PM,28.6,21.6,75,30.36,10.0,Calm,Calm,-,N/A,,Clear,0,2012-12-31 04:15:00
11:35 PM,28.8,21.2,73,30.36,10.0,SSW,3.5,-,N/A,,Clear,210,2012-12-31 04:35:00
11:55 PM,27.5,21.7,79,30.37,10.0,SW,3.5,-,N/A,,Clear,220,2012-12-31 04:55:00